Theta_e
316 315 316 320 321 317 318 316 313 312 310 310 311 310 309 309 309 308 308 305 305 305 304 304 304 304 305 306 312 317 318 317
318 316 316 318 321 318 317 313 310 309 309 309 309 308 307 306 306 305 304 302 303 303 302 303 302 303 304 304 306 312 313 315
316 316 315 315 320 320 318 314 311 311 311 309 309 307 305 304 304 303 301 301 301 301 302 302 302 302 303 303 305 304 304 306
317 315 314 315 319 320 317 314 313 311 310 308 307 305 303 302 302 301 301 299 299 300 300 301 301 301 301 302 303 303 303 303
317 315 314 314 318 319 319 316 312 309 308 307 306 305 304 302 301 300 300 299 297 298 299 299 300 300 300 299 301 302 302 303
318 315 313 313 315 319 318 316 313 310 308 307 305 304 302 301 301 301 300 298 297 297 298 298 298 299 299 299 300 300 301 301
317 314 312 312 312 316 317 316 313 310 308 306 304 303 301 301 300 300 300 299 298 297 297 297 297 298 298 298 299 300 300 300
317 315 312 311 310 312 314 314 312 310 309 306 304 302 301 301 300 300 300 300 299 299 298 297 297 297 297 298 298 298 298 299
317 314 312 310 310 310 311 311 311 310 308 306 303 302 301 301 301 301 300 300 300 299 298 297 297 296 297 297 297 297 298 298
317 314 312 310 310 309 309 309 309 308 307 305 304 302 301 300 301 301 300 300 300 299 298 298 297 297 296 296 296 296 296 296
317 315 313 311 310 309 308 308 307 307 306 305 303 302 301 301 300 300 300 299 299 299 299 298 297 297 296 296 296 295 296 295
317 315 312 311 309 308 308 307 306 306 305 304 302 301 301 301 300 300 300 299 299 299 299 298 297 297 296 295 295 295 295 295
317 314 312 310 309 308 308 306 306 305 304 303 302 301 300 300 300 299 299 299 299 299 299 298 297 296 296 294 294 294 294 294
316 314 312 310 309 308 307 306 305 305 303 302 301 300 300 300 300 299 299 299 299 299 298 298 297 296 295 294 293 293 293 293
315 314 312 310 309 308 307 306 305 304 303 302 301 300 300 300 300 299 299 299 299 299 299 298 297 296 295 293 293 293 293 293
314 314 313 311 309 308 307 306 305 304 302 302 302 301 300 300 299 299 299 299 299 298 298 298 297 296 294 294 293 293 293 293
314 313 312 311 309 308 307 306 304 303 302 302 302 302 300 300 299 299 299 299 299 298 298 298 297 295 292 289 291 293 292 292
314 313 313 311 309 308 307 306 304 303 303 302 302 301 300 300 299 299 299 299 299 298 298 298 298 296 292 289 289 292 292 292
314 313 312 311 310 308 307 306 305 303 303 302 302 301 301 300 299 299 299 299 299 299 298 298 298 296 292 289 289 293 293 292
Wind_Speed
14 13 13 14 14 15 16 11 11 12 13 10 8 9 9 9 9 9 9 10 10 9 9 10 10 10 11 13 9 8 7 6
14 13 13 13 14 16 16 18 12 12 13 10 7 9 8 9 10 10 10 11 11 10 9 10 13 14 13 10 11 8 7 4
15 15 13 13 15 16 15 13 12 9 9 8 7 10 9 8 10 12 11 12 12 11 10 11 13 14 15 15 12 11 14 11
15 17 16 14 18 18 18 17 14 8 10 10 11 12 9 9 10 10 11 13 12 11 12 13 14 14 15 16 15 13 11 13
16 18 18 18 17 17 17 16 14 11 10 10 9 9 9 8 10 12 12 10 12 13 14 14 15 14 15 14 14 16 13 13
18 20 19 17 16 18 16 15 14 13 12 10 9 9 10 10 11 12 11 11 13 13 14 14 15 13 14 14 14 15 14 13
20 22 20 19 19 19 20 18 16 15 13 12 11 13 13 12 12 11 10 10 11 13 14 14 13 12 12 12 13 14 13 12
20 22 23 21 21 20 20 20 18 17 15 12 13 14 13 14 12 11 10 10 9 11 11 12 12 11 10 11 10 11 12 12
22 26 26 25 23 22 21 21 20 18 16 14 13 14 14 13 10 11 10 10 9 9 10 11 11 11 10 9 8 9 10 9
24 27 28 27 25 24 23 22 20 20 18 16 15 14 13 13 13 10 10 10 10 9 9 10 9 10 8 7 8 9 8 8
23 27 29 27 26 24 22 22 21 20 19 17 16 15 13 13 14 12 9 10 10 9 8 8 7 7 7 7 7 8 8 7
23 26 29 28 27 25 24 22 21 21 19 18 17 15 15 14 13 13 11 10 9 9 8 7 6 6 7 7 7 6 7 8
21 27 29 29 27 26 24 23 22 21 20 19 18 16 16 15 14 14 12 11 9 9 8 7 5 5 6 7 6 6 8 8
21 24 28 29 29 27 25 24 23 22 21 20 19 18 17 16 15 14 13 11 10 9 8 7 6 5 5 5 5 6 6 7
21 21 27 30 30 28 26 24 24 23 22 21 20 19 18 17 16 15 13 12 10 9 8 7 6 4 3 4 4 4 5 6
22 23 22 31 30 29 27 26 26 25 23 22 21 19 18 17 16 15 14 12 11 10 9 7 6 4 2 2 2 3 5 7
22 22 28 32 33 32 30 28 27 26 25 23 22 21 19 18 17 16 15 13 12 11 9 8 7 5 3 1 2 2 4 6
24 24 29 34 35 34 33 31 29 28 26 24 23 22 20 19 18 17 16 14 12 11 10 9 7 6 4 2 1 2 3 5
21 23 30 34 34 34 31 30 30 28 27 25 24 23 22 21 20 18 16 14 13 12 10 9 8 8 7 4 2 2 3 5
Wind_Direction
154 162 158 151 139 138 137 137 129 123 114 105 96 87 78 73 70 60 58 51 51 53 48 53 58 59 49 45 60 78 75 82
162 167 167 165 157 155 156 148 152 139 130 117 97 94 87 82 78 67 64 59 57 59 54 56 60 63 57 55 61 69 56 37
170 176 177 180 177 174 172 169 165 143 127 128 119 112 105 100 92 78 67 68 64 62 64 60 64 59 58 54 58 62 55 36
174 178 180 179 178 183 174 171 156 144 141 129 134 114 120 119 101 90 75 68 69 68 66 66 64 63 54 53 51 54 58 51
181 183 184 185 181 182 177 168 159 159 147 140 146 143 148 136 119 108 90 85 74 69 67 64 62 62 58 52 54 56 53 44
185 187 184 185 177 181 183 172 170 170 159 158 148 141 147 130 121 114 111 94 82 73 68 64 64 62 59 58 56 59 58 58
188 184 178 178 179 179 182 182 179 172 167 166 157 156 147 140 138 129 120 103 87 77 73 71 66 64 59 57 57 58 58 58
187 180 180 177 177 177 182 183 177 175 176 164 161 157 147 152 143 129 126 115 99 86 81 77 71 68 63 62 56 55 54 53
192 183 182 179 179 178 178 181 178 176 173 165 163 160 157 148 144 137 125 122 117 103 91 84 79 70 63 63 57 58 53 48
193 183 184 181 180 181 181 181 178 175 171 166 167 164 158 150 137 133 134 128 127 122 103 91 79 71 72 72 65 56 51 41
191 187 183 181 180 177 179 181 178 173 170 169 167 164 156 150 143 141 142 138 140 135 117 101 90 79 71 72 63 52 46 36
189 185 181 180 176 176 178 179 176 173 172 169 165 164 160 154 151 145 149 146 150 145 136 125 109 86 69 68 63 50 38 32
184 183 179 177 176 176 177 177 176 175 172 168 166 166 164 161 160 155 155 158 156 153 147 139 125 98 75 68 61 43 34 27
176 180 181 179 177 177 177 178 177 174 172 170 167 170 170 168 164 161 161 166 163 153 158 154 146 114 78 65 55 39 31 18
178 181 184 181 178 177 177 178 178 176 176 175 175 176 174 170 167 167 168 170 169 168 164 162 148 124 95 70 51 32 20 8
183 184 183 181 179 178 178 178 179 180 179 179 179 177 174 171 170 171 173 175 176 173 168 165 162 156 132 87 45 19 13 4
185 187 185 183 180 179 178 179 181 180 182 182 180 178 175 176 176 176 178 179 178 175 176 179 180 176 214 156 109 8 0 352
187 189 188 185 182 179 179 180 179 182 183 183 183 180 180 181 180 180 183 183 181 182 186 188 189 195 226 247 33 340 338 342
187 189 189 188 184 182 179 178 181 183 184 185 184 184 184 183 183 185 184 184 186 189 192 193 196 204 238 248 266 277 308 323